Content
SEND FEEDBACK

Daily
Averages
Monthly
Summary
Canada

VANCOUVER, BRITISH COLUMBIA


Home > North America > Canada > British Columbia
Elevation: 7 feet     Latitude: 49 11N     Longitude: 123 10W

WEATHER
 
SELECT A DAY
Number of Records: 255,153;   Date Range: 5/15/97 - 12/26/14
 
SHARE

PRINT THIS DATA

[ ← Previous Day ]
WEATHER ALMANAC - FEBRUARY 6, 2013
[ Next Day → ]
[ °C ]   °F
Weather ElementAverageHighLow
Temperature45.3 °F50 °F (11:15 pm)42.8 °F (1:35 am)
Dewpoint39.1 °F41 °F (12:35 am)35.6 °F (9:55 pm)
Humidity79.5 %93 % (1:35 am)58 % (11:15 pm)
Barometer29.89 in29.97 in (8:35 am)29.72 in (10:55 pm)
Wind Speed8.7 mph16.1 mph (11:15 pm)
Wind Gust28.8 mph (9:55 pm)
Weather ElementAverage
Visibility9.6 mi
Wind DirectionSSE (169.2 °)

Weather ElementTotal
Precipitation---
Heating Degree Days18.6 (Base 65)
Averaged from 63 records on February 6, 2013
WEATHER CONDITIONS BREAKOUT
WIND DIRECTION BREAKOUT
WEATHER BY HOUR - FEBRUARY 6, 2013
[ °C ]   °F
Local TimeTemperatureDewpointHumidityBarometerVisibilityWind DirectionWind SpeedGust SpeedPrecipitationEventsConditions
12:35 AM44.6 °F41.0 °F87 %29.88 in10.0 miSSW (200°)11.5 mph16.1 mphMostly Cloudy
1:15 AM44.6 °F41.0 °F87 %29.89 in10.0 miSouth (190°)8.1 mphScattered Clouds
1:35 AM42.8 °F41.0 °F93 %29.90 in10.0 miSSW (200°)10.4 mphMostly Cloudy
2:15 AM42.8 °F41.0 °F93 %29.90 in10.0 miSouth (190°)9.2 mphMostly Cloudy
2:35 AM44.6 °F41.0 °F87 %29.91 in10.0 miSSW (200°)5.8 mphRainLight Rain
2:55 AM44.6 °F41.0 °F87 %29.91 in10.0 miSSW (210°)10.4 mphMostly Cloudy
3:15 AM42.8 °F41.0 °F93 %29.92 in10.0 miSSW (200°)8.1 mphScattered Clouds
3:35 AM42.8 °F41.0 °F93 %29.92 in8.0 miSSW (210°)6.9 mphRainLight Rain
3:55 AM42.8 °F41.0 °F93 %29.93 in10.0 miSouth (180°)3.5 mphMostly Cloudy
4:15 AM42.8 °F41.0 °F93 %29.93 in10.0 miSSW (210°)9.2 mphMostly Cloudy
4:35 AM42.8 °F41.0 °F93 %29.94 in10.0 miSSW (200°)5.8 mphScattered Clouds
4:55 AM42.8 °F41.0 °F93 %29.94 in10.0 miSouth (190°)3.5 mphPartly Cloudy
5:15 AM42.8 °F41.0 °F93 %29.95 in10.0 miSouth (190°)5.8 mphPartly Cloudy
5:35 AM42.8 °F41.0 °F93 %29.95 in10.0 miSSW (200°)8.1 mphRainLight Rain
5:55 AM42.8 °F41.0 °F93 %29.95 in10.0 miSouth (190°)6.9 mphScattered Clouds
6:15 AM42.8 °F41.0 °F93 %29.96 in10.0 miSSW (210°)8.1 mphMostly Cloudy
6:35 AM42.8 °F41.0 °F93 %29.96 in10.0 miSSW (210°)5.8 mphRainLight Rain
6:55 AM42.8 °F41.0 °F93 %29.96 in10.0 miSouth (190°)4.6 mphMostly Cloudy
7:35 AM42.8 °F39.2 °F87 %29.96 in10.0 miSouth (190°)5.8 mphClear
7:55 AM42.8 °F39.2 °F87 %29.96 in10.0 miSouth (190°)9.2 mphPartly Cloudy
8:15 AM42.8 °F39.2 °F87 %29.96 in10.0 miSouth (180°)8.1 mphClear
8:35 AM44.6 °F39.2 °F81 %29.97 in10.0 miSouth (180°)8.1 mphPartly Cloudy
9:15 AM44.6 °F39.2 °F81 %29.97 in10.0 miSouth (170°)5.8 mphMostly Cloudy
9:35 AM44.6 °F39.2 °F81 %29.97 in10.0 miCalmOvercast
9:55 AM44.6 °F39.2 °F81 %29.97 in10.0 miSouth (170°)5.8 mphOvercast
10:15 AM44.6 °F39.2 °F81 %29.97 in10.0 miSouth (180°)8.1 mphOvercast
10:35 AM44.6 °F39.2 °F81 %29.96 in10.0 miSouth (180°)9.2 mph17.3 mphOvercast
10:55 AM46.4 °F39.2 °F76 %29.96 in10.0 miSouth (170°)6.9 mphOvercast
11:15 AM46.4 °F39.2 °F76 %29.96 in10.0 miSouth (180°)9.2 mph18.4 mphMostly Cloudy
11:55 AM46.4 °F39.2 °F76 %29.94 in10.0 miSouth (170°)10.4 mph17.3 mphMostly Cloudy
12:15 PM46.4 °F39.2 °F76 %29.94 in10.0 miSouth (180°)9.2 mph19.6 mphMostly Cloudy
12:35 PM46.4 °F39.2 °F76 %29.93 in10.0 miSouth (190°)12.7 mph21.9 mphMostly Cloudy
12:55 PM46.4 °F39.2 °F76 %29.92 in10.0 miSouth (180°)11.5 mph19.6 mphMostly Cloudy
1:15 PM46.4 °F39.2 °F76 %29.92 in10.0 miSouth (170°)10.4 mph20.7 mphScattered Clouds
1:35 PM46.4 °F39.2 °F76 %29.91 in10.0 miSouth (180°)9.2 mph17.3 mphClear
1:55 PM46.4 °F39.2 °F76 %29.91 in10.0 miSouth (170°)8.1 mphPartly Cloudy
2:15 PM46.4 °F39.2 °F76 %29.91 in10.0 miSouth (170°)8.1 mphRainLight Rain
2:35 PM46.4 °F39.2 °F76 %29.90 in10.0 miSSE (160°)8.1 mph17.3 mphRainLight Rain
2:55 PM46.4 °F39.2 °F76 %29.90 in10.0 miSSE (160°)9.2 mphMostly Cloudy
3:15 PM46.4 °F39.2 °F76 %29.91 in6.0 miSSE (160°)6.9 mphRainLight Rain
3:35 PM44.6 °F39.2 °F81 %29.90 in5.0 miSSE (150°)6.9 mphRainLight Rain
3:55 PM44.6 °F39.2 °F81 %29.89 in5.0 miSSE (150°)6.9 mphRainLight Rain
4:15 PM46.4 °F39.2 °F76 %29.89 in5.0 miSSE (150°)8.1 mphRainLight Rain
4:35 PM46.4 °F39.2 °F76 %29.88 in9.0 miSSE (150°)8.1 mphRainLight Rain
5:15 PM46.4 °F39.2 °F76 %29.87 in9.0 miSE (140°)4.6 mphRainLight Rain
5:55 PM46.4 °F39.2 °F76 %29.86 in10.0 miSE (140°)10.4 mph23.0 mphOvercast
6:15 PM46.4 °F39.2 °F76 %29.85 in10.0 miSE (130°)9.2 mph18.4 mphOvercast
6:35 PM46.4 °F39.2 °F76 %29.84 in10.0 miSSE (150°)12.7 mph24.2 mphMostly Cloudy
6:55 PM46.4 °F39.2 °F76 %29.83 in10.0 miSSE (150°)11.5 mph19.6 mphScattered Clouds
7:15 PM46.4 °F39.2 °F76 %29.82 in10.0 miSSE (150°)11.5 mph20.7 mphMostly Cloudy
7:35 PM46.4 °F37.4 °F71 %29.81 in10.0 miSSE (160°)9.2 mph17.3 mphMostly Cloudy
7:55 PM46.4 °F37.4 °F71 %29.79 in10.0 miSSE (150°)12.7 mph25.3 mphMostly Cloudy
8:15 PM46.4 °F37.4 °F71 %29.79 in10.0 miSSE (160°)13.8 mph25.3 mphPartly Cloudy
8:55 PM46.4 °F37.4 °F71 %29.77 in10.0 miSSE (160°)9.2 mph24.2 mphClear
9:15 PM46.4 °F37.4 °F71 %29.75 in10.0 miSSE (150°)8.1 mph27.6 mphClear
9:35 PM48.2 °F37.4 °F66 %29.75 in10.0 miSE (140°)11.5 mph26.5 mphClear
9:55 PM48.2 °F35.6 °F62 %29.74 in10.0 miSSE (150°)11.5 mph28.8 mphClear
10:15 PM48.2 °F35.6 °F62 %29.74 in10.0 miSE (140°)11.5 mph26.5 mphClear
10:35 PM48.2 °F35.6 °F62 %29.73 in10.0 miSE (140°)12.7 mph19.6 mphClear
10:55 PM48.2 °F35.6 °F62 %29.72 in10.0 miSE (140°)6.9 mph21.9 mphClear
11:15 PM50.0 °F35.6 °F58 %29.72 in10.0 miSSE (150°)16.1 mph24.2 mphClear
11:35 PM48.2 °F35.6 °F62 %29.72 in10.0 miSSE (160°)10.4 mph25.3 mphClear
11:55 PM48.2 °F35.6 °F62 %29.72 in10.0 miSSE (150°)11.5 mph20.7 mphClear
Hourly data recorded from CZBB, located miles away from Vancouver, British Columbia







STORIES FROM OUR PARTNERS